Location: Batesville
(34.7480°N, 83.6110°W)
Time: 23:20:41
(UTC-04:00)

Envisat - Pass Details

Date: 26 January 2018
Orbit: 764 x 766 km, 98.2° (Epoch: 20 May)

Event Time Altitude Azimuth Distance (km) Brightness Sun altitude
Exits shadow 20:04:52 23° 0° (N) 1,602 4.6 -26.1°
Drops below altitude 10° 20:06:43 10° 355° (N) 2,305 5.5 -26.5°
Sets 20:09:02 0° 352° (N) 3,234 6.3 -27.0°
